This is the latest recevied weather packets stored in our database for station/object PP5CFL-13. If no packets are shown the sender has not sent any weather packets the latest 10 day(s).
| Time | Temp. | Humidity | Pressure | Rain* | Wind** | Luminosity | Snow |
|---|---|---|---|---|---|---|---|
| 1778096324 | 25.56° C | 86% | 1019.2 hPa | - | - | - | - |
| 1778096024 | 25.56° C | 87% | 1019.2 hPa | - | - | - | - |
| 1778095724 | 25° C | 89% | 1019.2 hPa | - | - | - | - |
| 1778095424 | 25.56° C | 87% | 1019.3 hPa | - | - | - | - |
| 1778095124 | 25.56° C | 86% | 1019.3 hPa | - | - | - | - |
| 1778094824 | 25.56° C | 86% | 1019.4 hPa | - | - | - | - |
| 1778094524 | 25.56° C | 87% | 1019.3 hPa | - | - | - | - |
| 1778094224 | 25.56° C | 88% | 1019.4 hPa | - | - | - | - |
| 1778093924 | 25.56° C | 86% | 1019.3 hPa | - | - | - | - |
| 1778093624 | 25.56° C | 88% | 1019.2 hPa | - | - | - | - |
| 1778093324 | 25° C | 91% | 1019.3 hPa | - | - | - | - |
| 1778093024 | 24.44° C | 95% | 1019.5 hPa | - | - | - | - |
| 1778092724 | 23.89° C | 97% | 1019.5 hPa | - | - | - | - |
| 1778092424 | 23.89° C | 96% | 1019.6 hPa | - | - | - | - |
| 1778092124 | 23.89° C | 97% | 1019.6 hPa | - | - | - | - |
| 1778091824 | 23.89° C | 98% | 1019.7 hPa | - | - | - | - |
| 1778091524 | 23.89° C | 98% | 1019.7 hPa | - | - | - | - |
| 1778091224 | 23.89° C | 98% | 1019.7 hPa | - | - | - | - |
| 1778090924 | 23.89° C | 98% | 1019.8 hPa | - | - | - | - |
| 1778090624 | 23.89° C | 98% | 1019.8 hPa | - | - | - | - |
| 1778090324 | 23.89° C | 98% | 1019.8 hPa | - | - | - | - |
| 1778090024 | 23.89° C | 99% | 1019.8 hPa | - | - | - | - |
| 1778089724 | 23.89° C | 99% | 1019.8 hPa | - | - | - | - |
| 1778089424 | 23.89° C | 99% | 1019.9 hPa | - | - | - | - |
| 1778089124 | 23.89° C | 99% | 1019.8 hPa | - | - | - | - |
* Rain since midnight (hover to see other rain measurements)
** Current wind speed in m/s (hover to see current wind gust speed)